Wind_Speed
17 17 15 14 15 17 22 26 30 31 34 37 38 37 34 32 30 29 27 26 24 24 25 31 36 39 40 39 38 38 38 37 37 35 34 33 33 33 34 35 36 37 39 41
14 13 12 11 11 14 18 22 26 30 31 34 35 32 28 24 21 18 15 13 14 17 22 28 32 34 35 35 35 34 33 32 31 31 31 30 31 32 32 34 36 39 41 43
13 11 8 6 8 12 16 20 24 27 29 31 30 29 26 20 13 8 3 4 10 16 21 25 28 31 31 31 30 29 28 27 27 27 28 28 30 30 33 35 37 41 44 44
10 8 6 4 7 11 15 18 22 25 28 29 29 28 24 21 15 10 8 10 14 18 21 23 26 27 27 26 25 24 23 23 25 28 30 30 31 32 34 36 39 41 43 43
7 6 5 3 6 10 13 16 20 23 26 28 28 27 24 22 19 15 15 16 18 20 21 22 23 23 22 22 22 22 22 23 26 28 28 29 31 33 35 37 39 40 41 43
7 6 5 4 6 9 12 15 18 21 23 25 25 25 24 22 21 19 18 18 19 19 19 19 19 19 19 19 20 21 23 25 27 29 30 31 30 32 34 35 37 39 41 44
8 7 6 5 6 8 10 14 16 18 20 21 22 22 22 21 19 17 15 15 17 17 17 17 16 16 17 18 21 24 25 26 26 25 25 25 27 30 32 34 37 40 43 45
9 9 9 8 8 9 11 14 15 17 18 18 18 18 18 17 16 13 12 11 11 12 14 16 16 17 17 18 18 19 19 18 18 19 21 23 26 29 33 36 39 41 43 45
11 11 11 11 11 12 13 14 14 15 15 14 14 15 14 14 13 12 10 9 7 7 8 10 10 11 11 12 12 12 13 15 16 19 21 24 28 32 35 37 39 41 43 44
14 13 13 12 13 13 13 13 14 13 13 12 12 12 11 10 9 9 8 8 7 6 6 5 5 4 4 5 6 9 12 14 17 20 24 28 31 34 36 38 39 41 42 44
17 16 16 15 14 14 14 13 12 12 10 11 11 11 10 7 6 5 4 4 4 4 4 3 2 0 2 5 8 10 13 16 20 24 28 30 32 34 36 38 40 41 43 45
19 18 17 16 16 15 14 13 12 10 9 9 10 10 9 7 5 3 1 1 2 1 1 0 2 4 6 8 10 13 17 20 24 27 29 31 33 35 37 38 40 41 44 48
20 19 18 17 15 14 13 13 11 10 9 9 10 10 9 7 5 2 1 2 2 2 3 4 5 7 9 12 15 18 21 24 26 28 30 32 33 35 37 38 41 44 47 51
20 19 18 17 16 14 14 13 12 11 10 10 10 10 8 6 4 3 3 3 4 4 5 6 8 11 13 16 19 21 23 25 27 29 31 32 34 35 38 40 44 47 51 55
20 19 18 18 16 15 15 14 13 12 12 12 12 10 8 7 5 4 5 5 5 6 8 10 12 15 17 19 21 23 25 27 28 30 31 33 35 37 40 44 47 51 55 59
18 18 18 18 17 16 15 15 15 14 14 14 13 11 9 8 7 6 6 7 8 9 12 14 16 17 19 21 23 25 26 28 29 31 32 34 37 40 44 48 51 55 60 64
17 17 18 19 18 17 16 15 15 15 15 15 13 11 9 9 8 8 9 10 11 13 15 16 18 19 21 23 24 26 28 29 30 31 34 37 40 44 48 52 56 60 65 69
16 17 18 19 19 19 18 17 16 16 15 14 12 11 10 9 10 10 11 13 14 16 17 19 20 21 23 24 26 27 28 29 31 34 36 40 44 48 52 56 61 66 70 72
16 16 16 17 18 19 18 18 17 16 15 13 12 12 11 11 11 12 13 15 16 18 19 20 21 23 24 26 27 27 28 30 33 36 39 43 47 52 57 62 66 70 73 72
15 15 14 14 15 16 17 17 17 16 15 14 13 12 12 12 13 14 16 17 18 20 21 22 23 24 25 26 27 28 29 32 35 38 42 47 52 57 62 66 71 73 71 65
15 15 14 14 14 15 16 16 16 16 15 15 14 14 14 14 16 17 18 19 20 21 22 23 24 25 26 26 27 28 31 34 37 41 46 51 56 60 65 69 71 70 63 53
15 15 15 15 16 16 16 16 16 16 16 16 16 16 16 17 18 19 19 20 21 21 22 23 25 26 26 26 28 30 33 36 40 44 49 54 58 62 66 69 68 61 50 35
15 16 17 17 17 17 17 17 17 17 18 18 18 18 18 19 19 20 20 20 21 22 23 24 25 26 26 27 29 31 35 38 43 47 51 56 59 62 65 65 59 48 34 20
16 17 19 20 20 20 20 20 20 20 20 20 20 20 20 20 20 20 21 21 22 23 24 25 26 26 26 28 30 33 36 40 44 49 54 57 59 61 61 56 46 33 21 10
18 18 19 20 21 22 22 22 21 21 21 21 21 21 21 21 21 21 21 22 23 24 25 26 26 26 27 29 31 34 38 42 46 51 54 56 58 58 54 45 33 22 12 4
21 21 22 22 22 22 23 23 22 22 22 22 22 22 22 22 22 22 23 23 24 25 26 25 25 26 27 29 32 35 39 43 48 52 54 56 56 52 43 32 23 14 7 3
25 25 25 25 25 25 25 25 24 24 24 23 23 23 23 23 23 24 24 25 26 26 25 25 25 26 27 30 33 37 40 45 49 52 54 54 51 43 32 23 16 10 5 3
Wind_Direction
269 273 279 289 301 316 325 328 330 334 331 330 328 323 317 309 300 289 279 271 261 249 233 219 210 200 196 199 203 209 216 222 229 235 242 249 255 260 265 270 275 280 284 286
263 269 279 296 321 336 340 340 342 343 341 339 339 339 334 324 314 305 288 266 243 226 210 201 195 190 190 194 201 208 215 222 230 237 244 251 257 261 268 274 278 282 284 285
258 266 275 307 343 355 357 357 357 356 354 353 354 355 356 354 350 351 334 204 189 186 182 181 182 183 186 191 199 207 214 223 231 238 245 250 257 263 271 276 279 282 284 287
253 260 278 328 360 6 5 5 4 3 5 6 6 8 12 20 32 52 90 124 144 153 160 167 173 178 182 189 197 205 214 223 232 239 242 248 258 266 271 275 280 284 287 290
242 249 271 321 360 6 5 4 4 5 7 8 11 17 23 34 48 70 94 113 128 140 150 159 166 172 179 188 195 204 214 224 234 239 245 254 262 269 275 281 286 288 290 292
239 245 267 310 343 354 356 2 5 7 9 11 15 20 27 38 50 68 89 106 120 131 141 150 158 166 176 187 196 207 217 228 235 242 250 259 269 278 284 287 289 291 292 294
245 254 272 301 324 338 345 353 357 2 5 9 14 20 25 35 49 62 79 99 116 127 137 144 153 167 180 195 206 215 222 230 242 254 267 276 283 285 287 289 291 293 295 297
251 261 272 289 302 318 329 339 347 353 358 5 12 20 24 30 41 56 71 91 111 129 146 159 169 181 193 206 216 226 239 253 266 277 283 285 287 289 291 293 295 296 298 300
256 267 278 286 292 303 315 327 338 347 353 359 6 13 21 30 40 50 67 82 105 130 154 169 184 196 211 227 242 256 270 279 283 285 286 288 290 292 294 296 298 300 302 304
261 268 278 286 291 298 307 317 329 340 349 354 357 2 8 18 30 39 56 68 81 96 116 132 147 170 207 239 259 269 275 279 283 286 289 292 294 296 298 299 301 303 305 306
262 268 274 280 284 291 297 305 317 330 338 346 350 351 354 356 5 23 40 59 73 82 93 100 103 208 273 276 276 278 281 285 288 291 294 296 298 299 301 303 305 306 307 308
262 267 272 275 277 281 286 292 301 311 321 334 339 342 344 344 347 348 7 100 103 108 116 274 280 279 282 282 282 285 288 291 294 296 298 300 301 303 304 305 307 308 309 310
260 264 268 271 273 274 275 278 284 291 301 317 327 332 333 329 322 305 224 202 211 239 255 265 273 283 288 290 291 294 296 298 299 300 301 302 304 305 307 308 309 311 311 312
257 260 262 265 265 264 262 265 269 276 285 300 313 318 321 320 309 279 246 251 259 265 274 283 289 292 296 297 298 300 301 301 302 303 304 305 307 309 310 311 312 313 313 313
254 255 255 256 255 254 254 257 261 268 276 287 298 300 296 295 291 271 253 251 262 277 288 294 297 298 300 301 301 302 303 303 304 305 307 309 311 312 314 314 314 314 314 314
251 249 248 247 247 249 250 253 257 263 271 278 285 285 279 271 268 260 259 266 279 288 294 297 299 301 301 302 303 304 305 306 308 309 311 313 314 315 316 316 315 315 315 316
247 247 245 243 243 246 248 251 255 260 267 274 276 272 264 257 256 259 267 277 285 290 294 298 300 302 302 303 304 306 308 310 311 313 315 316 317 317 317 317 316 316 316 317
246 248 247 244 242 242 245 248 254 258 263 266 264 259 253 252 254 263 274 281 287 291 295 298 300 301 302 304 306 309 311 313 315 316 317 318 319 319 318 318 318 317 317 317
247 250 248 244 240 240 240 242 247 250 252 255 253 250 249 253 261 272 280 287 290 293 296 298 300 302 304 307 309 311 313 315 317 319 320 320 321 320 320 319 319 318 317 318
245 245 243 239 235 233 234 235 237 240 243 245 245 247 252 259 270 279 286 290 293 296 298 299 301 303 306 309 311 313 315 317 319 321 322 323 322 322 321 320 319 319 319 320
241 241 238 233 228 227 227 229 232 236 238 241 246 253 261 269 278 285 289 292 295 297 298 300 302 305 308 310 312 314 316 319 321 323 324 324 324 324 323 322 321 321 321 322
239 236 232 226 224 223 224 228 233 237 241 247 256 263 270 276 282 287 291 293 295 297 299 301 305 307 309 311 313 315 318 321 323 325 326 326 326 326 325 324 324 324 324 326
240 238 234 231 229 228 230 235 239 244 250 257 263 269 275 279 283 287 290 293 295 298 300 303 306 307 308 310 313 317 320 323 325 327 328 328 328 328 328 327 327 327 329 331
245 242 242 242 241 241 242 245 248 252 258 263 267 272 275 278 282 286 289 293 296 299 302 304 305 306 308 311 314 319 323 326 328 329 330 330 330 330 330 330 331 333 336 341
254 252 249 248 248 248 250 253 255 258 261 264 267 270 273 277 281 285 289 293 296 299 301 302 303 305 308 312 317 322 326 329 330 331 332 332 332 332 331 333 336 341 348 6
258 257 256 254 254 253 253 254 255 257 259 262 265 268 272 275 280 283 287 291 294 297 298 299 301 305 310 316 321 325 329 331 332 333 334 333 333 332 334 337 342 348 1 32
259 259 259 259 258 258 257 256 257 257 258 260 263 266 269 273 278 282 286 290 293 295 296 298 302 307 313 319 323 327 330 332 334 335 335 334 333 333 336 340 346 355 9 12
Height
5624 5624 5625 5625 5624 5621 5617 5612 5606 5600 5592 5583 5572 5561 5551 5543 5536 5532 5529 5528 5529 5533 5538 5544 5553 5565 5578 5591 5601 5611 5619 5627 5634 5641 5646 5650 5652 5654 5655 5655 5655 5654 5652 5650
5621 5621 5622 5621 5620 5618 5614 5609 5603 5596 5589 5579 5568 5558 5548 5539 5532 5527 5524 5524 5526 5530 5536 5544 5554 5566 5577 5588 5598 5607 5616 5624 5631 5636 5640 5643 5645 5647 5648 5648 5647 5645 5643 5640
5618 5619 5619 5619 5618 5615 5612 5607 5601 5595 5588 5578 5569 5559 5549 5540 5533 5528 5526 5526 5528 5533 5540 5548 5558 5568 5578 5588 5597 5606 5614 5621 5627 5631 5634 5636 5638 5640 5640 5640 5638 5636 5634 5630
5616 5617 5617 5618 5615 5613 5610 5606 5600 5594 5587 5579 5571 5562 5554 5545 5538 5534 5532 5533 5536 5540 5547 5555 5563 5572 5580 5589 5598 5605 5612 5617 5621 5624 5627 5630 5632 5633 5632 5631 5629 5627 5624 5620
5614 5614 5615 5615 5613 5611 5609 5606 5601 5595 5589 5583 5575 5568 5561 5553 5547 5543 5542 5542 5545 5549 5555 5561 5569 5576 5584 5591 5598 5604 5609 5614 5617 5621 5623 5625 5626 5626 5624 5622 5620 5617 5614 5610
5612 5613 5614 5614 5612 5610 5609 5606 5602 5597 5592 5586 5581 5575 5569 5562 5557 5554 5553 5553 5555 5558 5563 5568 5574 5580 5586 5592 5597 5603 5607 5611 5614 5617 5618 5619 5618 5617 5616 5614 5611 5608 5604 5600
5611 5611 5612 5612 5610 5610 5609 5607 5602 5598 5594 5590 5585 5581 5576 5571 5567 5564 5563 5563 5564 5566 5570 5574 5578 5583 5588 5592 5597 5601 5605 5608 5610 5611 5611 5611 5611 5610 5609 5606 5603 5600 5595 5590
5609 5610 5612 5610 5609 5609 5608 5604 5602 5599 5596 5593 5589 5585 5582 5578 5575 5573 5572 5571 5572 5573 5575 5578 5582 5585 5589 5593 5596 5599 5601 5603 5604 5606 5606 5606 5605 5604 5602 5598 5595 5590 5584 5578
5608 5610 5609 5608 5607 5606 5605 5604 5601 5599 5597 5594 5592 5589 5586 5584 5582 5580 5579 5579 5579 5580 5581 5584 5586 5589 5592 5594 5596 5598 5599 5600 5601 5602 5602 5601 5600 5597 5594 5590 5585 5580 5574 5568
5604 5605 5606 5605 5605 5604 5603 5602 5601 5599 5597 5595 5593 5591 5589 5587 5586 5585 5584 5584 5584 5585 5586 5588 5589 5591 5593 5595 5596 5598 5599 5599 5599 5599 5598 5595 5592 5589 5584 5580 5575 5569 5564 5557
5600 5602 5602 5602 5602 5602 5601 5600 5599 5598 5597 5595 5593 5592 5590 5589 5588 5587 5587 5587 5587 5588 5589 5590 5591 5592 5594 5595 5596 5596 5596 5596 5595 5593 5591 5587 5584 5580 5575 5570 5565 5560 5553 5547
5596 5598 5599 5599 5599 5599 5598 5598 5597 5597 5596 5594 5593 5592 5590 5589 5588 5588 5588 5588 5589 5589 5590 5591 5592 5592 5593 5593 5593 5593 5592 5591 5589 5586 5583 5579 5575 5571 5566 5561 5555 5549 5542 5535
5591 5593 5594 5595 5595 5595 5595 5595 5595 5595 5594 5593 5592 5591 5590 5589 5588 5588 5588 5589 5589 5590 5590 5591 5591 5591 5591 5590 5590 5588 5587 5584 5582 5579 5575 5571 5567 5563 5557 5552 5545 5539 5531 5523
5586 5588 5589 5590 5591 5591 5591 5592 5592 5592 5592 5591 5591 5590 5589 5588 5588 5588 5588 5588 5589 5589 5589 5589 5589 5588 5587 5586 5585 5583 5581 5578 5575 5571 5567 5563 5559 5554 5548 5542 5535 5527 5519 5510
5581 5582 5584 5585 5586 5587 5587 5588 5589 5589 5589 5589 5589 5588 5587 5587 5587 5586 5587 5587 5587 5587 5587 5586 5585 5584 5583 5581 5579 5577 5574 5571 5568 5564 5560 5555 5550 5544 5538 5531 5523 5515 5506 5496
5575 5577 5578 5580 5581 5582 5583 5584 5585 5586 5586 5586 5585 5585 5585 5585 5585 5585 5585 5585 5585 5584 5584 5583 5582 5580 5578 5576 5573 5571 5567 5564 5560 5556 5551 5546 5540 5534 5527 5520 5512 5503 5493 5483
5570 5572 5573 5575 5576 5578 5579 5580 5581 5582 5582 5582 5582 5582 5581 5582 5582 5582 5582 5582 5582 5581 5580 5579 5577 5575 5573 5570 5567 5564 5561 5557 5553 5548 5543 5537 5531 5524 5517 5509 5499 5489 5478 5466
5565 5567 5568 5569 5571 5573 5574 5576 5577 5578 5578 5578 5578 5578 5579 5579 5579 5579 5579 5579 5578 5577 5575 5574 5572 5570 5567 5564 5561 5558 5554 5549 5545 5540 5535 5529 5522 5514 5506 5496 5486 5474 5461 5449
5560 5562 5563 5564 5566 5567 5569 5571 5572 5573 5574 5574 5575 5575 5575 5576 5576 5576 5576 5575 5574 5573 5571 5569 5567 5564 5561 5558 5555 5551 5547 5542 5538 5532 5527 5520 5512 5503 5494 5482 5470 5458 5445 5433
5556 5557 5558 5559 5561 5563 5564 5566 5568 5569 5570 5571 5571 5572 5572 5572 5573 5572 5572 5571 5569 5568 5566 5563 5561 5558 5555 5552 5548 5544 5540 5535 5530 5524 5518 5510 5501 5491 5480 5468 5454 5441 5428 5417
5552 5553 5554 5555 5557 5558 5560 5562 5563 5565 5566 5567 5567 5568 5568 5569 5568 5568 5567 5566 5564 5562 5560 5558 5555 5552 5549 5546 5542 5538 5533 5528 5523 5516 5509 5500 5490 5479 5466 5452 5438 5424 5412 5403
5548 5549 5551 5552 5553 5555 5556 5558 5559 5561 5562 5563 5563 5564 5564 5564 5563 5562 5561 5560 5558 5556 5554 5552 5549 5546 5543 5539 5535 5531 5526 5521 5515 5508 5499 5490 5479 5466 5453 5438 5424 5411 5401 5394
5544 5545 5547 5548 5550 5551 5552 5554 5555 5556 5557 5558 5559 5559 5559 5558 5558 5557 5556 5554 5553 5551 5548 5546 5543 5540 5537 5533 5529 5525 5519 5513 5507 5499 5489 5479 5467 5455 5441 5426 5412 5401 5393 5389
5540 5541 5542 5544 5545 5546 5548 5549 5550 5551 5552 5553 5553 5553 5553 5553 5552 5551 5550 5548 5547 5545 5542 5540 5537 5534 5530 5527 5522 5518 5512 5506 5498 5489 5480 5469 5457 5444 5430 5416 5404 5396 5390 5388
5534 5536 5537 5538 5539 5541 5542 5543 5544 5545 5546 5546 5547 5547 5547 5547 5546 5545 5544 5542 5540 5538 5536 5533 5530 5527 5524 5520 5516 5511 5504 5497 5489 5480 5470 5459 5447 5435 5422 5410 5401 5394 5390 5389
5528 5529 5530 5532 5533 5534 5535 5536 5537 5538 5539 5540 5540 5540 5540 5540 5539 5538 5537 5536 5534 5532 5529 5527 5524 5521 5518 5514 5509 5503 5497 5489 5481 5472 5461 5450 5439 5427 5415 5406 5399 5395 5393 5392
5521 5522 5523 5524 5525 5526 5528 5529 5530 5531 5532 5532 5533 5533 5533 5533 5532 5531 5530 5528 5527 5525 5522 5520 5518 5515 5511 5507 5502 5496 5489 5481 5473 5463 5453 5442 5431 5420 5412 5405 5400 5397 5395 5394